Regional Weather Roundup
Issued by NWS

Home | Current Version | Previous Version | Text Only | Print | Product List | Glossary Off
Versions: 1 2 3 4 5 6 7 8 9 10 11 12 13 14 15 16 17 18 19 20 21 22 23 24 25 26 27

000
ASUS45 KCYS 251210
RWRWY

WYOMING REGIONAL WEATHER ROUNDUP
NATIONAL WEATHER SERVICE CHEYENNE WY
600 AM MDT SAT OCT 25 2014

NOTE:  "FAIR" INDICATES FEW OR NO CLOUDS BELOW 12,000 FEET
WITH NO SIGNIFICANT WEATHER AND/OR OBSTRUCTIONS TO VISIBILITY.

WYZ001-251300-
YELLOWSTONE NATIONAL PARK

CITY           SKY/WX    TMP DP  RH WIND       PRES   REMARKS
LK YELLOWSTONE   N/A     26  23  88 NW3       30.24
6HR MIN TEMP:  26; 6HR MAX TEMP:  28;

W YELLOWSTONE  NOT AVBL

$$
WYZ002>013-054>058-071-098>099-251300-
NORTHERN WYOMING

CITY           SKY/WX    TMP DP  RH WIND       PRES   REMARKS
JACKSON        CLEAR     28  25  86 N8        30.21S WCI  20
CODY           CLEAR     37  30  75 SW3       30.10
GREYBULL       CLEAR     33  27  78 W3        30.09S
6HR MIN TEMP:  33; 6HR MAX TEMP:  47;

WORLAND        CLEAR     31  28  89 S8        30.09S WCI  23
6HR MIN TEMP:  30; 6HR MAX TEMP:  46;

SHERIDAN       CLEAR     30  25  81 CALM      30.09S
6HR MIN TEMP:  27; 6HR MAX TEMP:  36;

BUFFALO        CLEAR     37  29  72 S8        30.11S WCI  31
6HR MIN TEMP:  36; 6HR MAX TEMP:  44;

GILLETTE       CLEAR     41  33  73 S15       30.13R
6HR MIN TEMP:  29; 6HR MAX TEMP:  41;

HULETT         FAIR      39  30  70 CALM      30.14
NEWCASTLE      FAIR      36  32  87 N3        30.17

$$
WYZ014>020-022>026-101>103-251300-
CENTRAL WYOMING

CITY           SKY/WX    TMP DP  RH WIND       PRES   REMARKS
BIG PINEY      CLEAR     24  18  77 SE6       30.28S WCI  17
6HR MIN TEMP:  22; 6HR MAX TEMP:  32; 6HR PCP: TRACE;

PINEDALE       SUNNY     27  23  86 NW6       30.29  WCI  20
DUBOIS         FAIR      37  18  44 NW10      30.21R WCI  30
LANDER         PTCLDY    45  20  36 CALM      30.14F
6HR MIN TEMP:  41; 6HR MAX TEMP:  53;

RIVERTON       CLEAR     39  20  46 N9        30.16F WCI  33
6HR MIN TEMP:  35; 6HR MAX TEMP:  55;

CASPER         CLEAR     43  26  51 CALM      30.18R
6HR MIN TEMP:  37; 6HR MAX TEMP:  48;

DOUGLAS        CLEAR     33  23  66 S3        30.18R
6HR MIN TEMP:  32; 6HR MAX TEMP:  44;


$$
WYZ021-027>030-104>119-251300-
SOUTHERN WYOMING

CITY           SKY/WX    TMP DP  RH WIND       PRES   REMARKS
EVANSTON       CLEAR     49  19  30 SE5       30.23F
6HR MIN TEMP:  46; 6HR MAX TEMP:  53;

FORT BRIDGER   FAIR      43  17  34 CALM      30.27S
ROCK SPRINGS   PTCLDY    39  26  59 E5        30.25F
6HR MIN TEMP:  39; 6HR MAX TEMP:  49;

DIXON          FAIR      35  28  76 SE5       30.32S WCI  30
RAWLINS        PTCLDY    32  23  69 CALM      30.29R
6HR MIN TEMP:  32; 6HR MAX TEMP:  52;

SARATOGA       FAIR      43  21  42 CALM      30.32S
LARAMIE        CLEAR     35  20  54 SW6       30.32R WCI  30
6HR MIN TEMP:  35; 6HR MAX TEMP:  49;

CHEYENNE       CLEAR     41  24  51 W6        30.25S
6HR MIN TEMP:  39; 6HR MAX TEMP:  54;

TORRINGTON     CLEAR     37  31  78 W3        30.15R
6HR MIN TEMP:  37; 6HR MAX TEMP:  49;

PINE BLUFFS    FAIR      36  28  75 SW5       30.21S WCI  32

$$



USA.gov is the U.S. government's official web portal to all federal, state and local government web resources and services.